Weather History for EGMC - May, 2014

Change the Weather History Date:

Saturday, May 10, 2014

  Actual Average Record
Temperature  
Mean Temperature 58 °F -  
Max Temperature 64 °F 62 °F 77 °F (2008)
Min Temperature 51 °F 48 °F 37 °F (2005)
Degree Days  
Heating Degree Days 8    
Growing Degree Days 8 (Base 50)    
Moisture  
Dew Point 47 °F    
Average Humidity 74    
Maximum Humidity 88    
Minimum Humidity 49    
Precipitation  
Precipitation 0.00 in - - ()
Sea Level Pressure  
Sea Level Pressure 29.62 in    
Wind  
Wind Speed 17 mph ()    
Max Wind Speed 29 mph    
Max Gust Speed 43 mph    
Visibility 6.2 miles    
Events Rain    
Averages and records for this station are not official NWS values.
T = Trace of Precipitation, MM = Missing Value Source: Averaged Metar Reports

Daily Weather History Graph

Daily Weather History Graph

Search for Another Location

Airport or City:

Trip Planner

Search our weather history database for the weather conditions in past years. The results will help you decide how hot, cold, wet, or windy it might be!

Date:

Astronomy

May. 10, 2014 Rise Set
Actual Time 5:13 AM BST 8:35 PM BST
Civil Twilight 4:33 AM BST 9:15 PM BST
Nautical Twilight 3:39 AM BST 10:09 PM BST
Astronomical Twilight 2:25 AM BST 11:25 PM BST
Moon 3:45 PM BST (5/10) 3:12 AM BST (5/10)
Length of Visible Light 16h 42m
Length of Day
15h 21m
Waxing Gibbous, 80% of the Moon is Illuminated
May 10
Waxing Gibbous
May 14
Full
May 21
Last Quarter
May 28
New
Jun 5
First Quarter

Hourly Weather History & Observations

Time (BST) Temp. Dew Point Humidity Pressure Visibility Wind Dir Wind Speed Gust Speed Precip Events Conditions
1:20 AM 53.6 °F 46.4 °F 77% 29.89 in - SSW 10.4 mph - N/A   Clear
1:50 AM 53.6 °F 46.4 °F 77% 29.86 in - SSW 13.8 mph - N/A   Clear
2:50 AM 51.8 °F 46.4 °F 82% 29.86 in 6.2 mi SW 13.8 mph - N/A   Mostly Cloudy
3:20 AM 53.6 °F 46.4 °F 77% 29.83 in 6.2 mi SW 13.8 mph - N/A   Mostly Cloudy
3:50 AM 53.6 °F 48.2 °F 82% 29.83 in 5.6 mi SW 15.0 mph - N/A Rain Light Rain
4:50 AM 51.8 °F 48.2 °F 88% 29.77 in 5.6 mi SSW 16.1 mph - N/A Rain Light Rain
5:20 AM 51.8 °F 48.2 °F 88% 29.77 in 5.6 mi SSW 15.0 mph - N/A Rain Light Rain
5:50 AM 51.8 °F 48.2 °F 88% 29.74 in 6.2 mi SSW 17.3 mph - N/A Rain Light Rain
6:20 AM 53.6 °F 48.2 °F 82% 29.74 in 6.2 mi SSW 18.4 mph - N/A   Mostly Cloudy
6:50 AM 53.6 °F 48.2 °F 82% 29.71 in 6.2 mi SSW 16.1 mph - N/A   Mostly Cloudy
7:20 AM 53.6 °F 48.2 °F 82% 29.71 in 6.2 mi SSW 18.4 mph - N/A   Mostly Cloudy
7:50 AM 53.6 °F 50.0 °F 88% 29.68 in 6.2 mi SSW 17.3 mph - N/A   Mostly Cloudy
8:20 AM 53.6 °F 50.0 °F 88% 29.68 in 6.2 mi SSW 20.7 mph - N/A Rain Light Rain
8:50 AM 53.6 °F 50.0 °F 88% 29.65 in 6.2 mi SSW 19.6 mph - N/A Rain Light Rain
9:20 AM 55.4 °F 51.8 °F 88% 29.65 in 6.2 mi SSW 19.6 mph - N/A Rain Light Rain Showers
9:50 AM 55.4 °F 51.8 °F 88% 29.62 in 6.2 mi SW 20.7 mph - N/A   Mostly Cloudy
10:20 AM 57.2 °F 53.6 °F 88% 29.62 in 6.2 mi SW 15.0 mph - N/A   Mostly Cloudy
10:50 AM 60.8 °F 55.4 °F 82% 29.62 in 6.2 mi SW 19.6 mph - N/A   Mostly Cloudy
11:20 AM 60.8 °F 51.8 °F 72% 29.59 in 6.2 mi SW 24.2 mph - N/A   Mostly Cloudy
11:50 AM 62.6 °F 53.6 °F 72% 29.59 in 6.2 mi SW 24.2 mph 35.7 mph N/A   Mostly Cloudy
12:20 PM 64.4 °F 51.8 °F 64% 29.56 in 6.2 mi SW 26.5 mph 38.0 mph N/A   Scattered Clouds
12:50 PM 64.4 °F 48.2 °F 56% 29.56 in 6.2 mi SW 26.5 mph - N/A   Scattered Clouds
1:20 PM 64.4 °F 46.4 °F 52% 29.53 in 6.2 mi SW 26.5 mph 38.0 mph N/A   Scattered Clouds
1:50 PM 62.6 °F 46.4 °F 55% 29.53 in 6.2 mi SW 26.5 mph 42.6 mph N/A   Scattered Clouds
2:20 PM 64.4 °F 44.6 °F 49% 29.53 in 6.2 mi SW 28.8 mph - N/A   Scattered Clouds
2:50 PM 64.4 °F 46.4 °F 52% 29.53 in 6.2 mi SW 28.8 mph 41.4 mph N/A   Partly Cloudy
3:20 PM 60.8 °F 44.6 °F 55% 29.53 in 6.2 mi SW 28.8 mph - N/A   Mostly Cloudy
3:50 PM 57.2 °F 48.2 °F 72% 29.53 in 6.2 mi WSW 24.2 mph 35.7 mph N/A Rain Light Rain Showers
4:20 PM 57.2 °F 51.8 °F 82% 29.50 in 6.2 mi WSW 19.6 mph 32.2 mph N/A Rain Light Rain Showers
4:50 PM 60.8 °F 48.2 °F 63% 29.50 in 6.2 mi WSW 26.5 mph 38.0 mph N/A   Scattered Clouds
5:20 PM 57.2 °F 46.4 °F 67% 29.50 in 6.2 mi SW 25.3 mph 36.8 mph N/A   Scattered Clouds
5:50 PM 55.4 °F 46.4 °F 72% 29.50 in 6.2 mi WSW 21.9 mph 34.5 mph N/A   Scattered Clouds
6:20 PM 55.4 °F 48.2 °F 77% 29.53 in 6.2 mi WSW 19.6 mph 31.1 mph N/A   Scattered Clouds
6:50 PM 55.4 °F 46.4 °F 72% 29.53 in 6.2 mi WSW 20.7 mph 32.2 mph N/A Rain Light Rain Showers
7:20 PM 55.4 °F 46.4 °F 72% 29.53 in 6.2 mi WSW 17.3 mph - N/A Rain Rain Showers
7:50 PM 53.6 °F 44.6 °F 72% 29.53 in 6.2 mi WSW 20.7 mph - N/A   Partly Cloudy
8:20 PM 53.6 °F 44.6 °F 72% 29.53 in 6.2 mi WSW 19.6 mph 31.1 mph N/A   Partly Cloudy
8:50 PM 53.6 °F 44.6 °F 72% 29.53 in 6.2 mi WSW 20.7 mph - N/A   Partly Cloudy
9:20 PM 51.8 °F 42.8 °F 71% 29.53 in 6.2 mi WSW 21.9 mph 33.4 mph N/A   Partly Cloudy
9:50 PM 51.8 °F 42.8 °F 71% 29.56 in 6.2 mi WSW 20.7 mph - N/A   Partly Cloudy
10:20 PM 51.8 °F 42.8 °F 71% 29.53 in 6.2 mi WSW 19.6 mph - N/A   Partly Cloudy
10:50 PM 51.8 °F 41.0 °F 67% 29.53 in 6.2 mi WSW 20.7 mph - N/A   Scattered Clouds
11:20 PM 51.8 °F 41.0 °F 67% 29.53 in 6.2 mi WSW 24.2 mph - N/A   Mostly Cloudy
11:50 PM 51.8 °F 41.0 °F 67% 29.53 in 6.2 mi WSW 21.9 mph - N/A   Mostly Cloudy